Weather reports worldwide

Advertisment
Santon Downham, United Kingdom (99118): temperature & dewpoint: 09.08.2018 20:00:00 - 15.08.2018 20:00:00 (BST)Santon Downham, United Kingdom (99118): temperature -20cm & temperature -100cm: 09.08.2018 20:00:00 - 15.08.2018 20:00:00 (BST)Santon Downham, United Kingdom (99118): precipitation: 09.08.2018 20:00:00 - 15.08.2018 20:00:00 (BST)
Date & Time tt [°C] td [°C] tt -20cm [°C] tt -100cm [°C] rr [mm]
15.08.2018 20:00:00 - - - - -
15.08.2018 19:00:00 22,7 14,6 - - 0,0
15.08.2018 18:00:00 23,5 14,2 - - 0,0
15.08.2018 17:00:00 24,3 14,8 - - 0,0
15.08.2018 16:00:00 25,5 14,5 - - 0,0
15.08.2018 15:00:00 25,2 14,6 - - 0,0
15.08.2018 14:00:00 24,1 15,1 - - 0,0
15.08.2018 13:00:00 23,6 15,6 - - 0,0
15.08.2018 12:00:00 22,4 15,5 - - 0,0
15.08.2018 11:00:00 21,5 15,2 - - 0,0
15.08.2018 10:00:00 19,8 14,6 19,0 17,7 0,0
15.08.2018 09:00:00 17,7 14,5 - - 0,0
15.08.2018 08:00:00 16,2 14,0 - - 0,0
15.08.2018 07:00:00 14,9 13,6 - - 0,0
15.08.2018 06:00:00 13,9 13,1 - - 0,0
15.08.2018 05:00:00 14,3 13,4 - - 0,0
15.08.2018 04:00:00 14,7 13,6 - - 0,0
15.08.2018 03:00:00 15,6 13,9 - - 0,0
15.08.2018 02:00:00 16,9 14,3 - - 0,0
15.08.2018 01:00:00 18,7 15,2 - - 0,0
15.08.2018 00:00:00 17,4 16,5 - - 0,0
14.08.2018 23:00:00 17,0 16,1 - - 0,0
14.08.2018 22:00:00 17,0 15,7 - - 0,0
14.08.2018 21:00:00 17,6 15,3 - - 0,0
14.08.2018 20:00:00 20,6 15,6 - - 0,0
14.08.2018 19:00:00 22,0 14,5 - - 0,0
14.08.2018 18:00:00 23,0 14,2 - - 0,0
14.08.2018 17:00:00 23,5 14,6 - - 0,0
14.08.2018 16:00:00 23,2 14,3 - - 0,0
14.08.2018 15:00:00 - - - - 0,0
14.08.2018 14:00:00 21,6 13,3 - - 0,0
14.08.2018 13:00:00 21,1 14,6 - - 0,0
14.08.2018 12:00:00 20,2 12,8 - - 0,0
14.08.2018 11:00:00 19,1 14,3 - - 0,0
14.08.2018 10:00:00 18,3 14,7 18,9 17,7 0,0
14.08.2018 09:00:00 16,8 14,6 - - 0,0
14.08.2018 08:00:00 15,3 13,8 - - 0,0
14.08.2018 07:00:00 14,2 13,3 - - 0,0
14.08.2018 06:00:00 14,6 13,6 - - 0,0
14.08.2018 05:00:00 14,5 13,5 - - 0,0
14.08.2018 04:00:00 14,9 13,9 - - 0,0
14.08.2018 03:00:00 15,4 14,4 - - 0,0
14.08.2018 02:00:00 16,1 15,4 - - 0,0
14.08.2018 01:00:00 16,3 15,6 - - 0,0
14.08.2018 00:00:00 16,6 16,4 - - 0,0
13.08.2018 23:00:00 16,5 16,5 - - 0,0
13.08.2018 22:00:00 15,5 15,1 - - 0,0
13.08.2018 21:00:00 16,5 15,8 - - 0,2
13.08.2018 20:00:00 17,8 17,3 - - 0,8
13.08.2018 19:00:00 18,3 17,5 - - 0,8
13.08.2018 18:00:00 19,1 17,5 - - 0,0
13.08.2018 17:00:00 19,3 17,5 - - 0,2
13.08.2018 16:00:00 18,4 17,5 - - 6,4
13.08.2018 15:00:00 19,2 16,0 - - 1,0
13.08.2018 14:00:00 20,4 18,0 - - 0,8
13.08.2018 13:00:00 20,9 16,3 - - 0,0
13.08.2018 12:00:00 19,1 16,5 - - 0,0
13.08.2018 11:00:00 18,9 16,3 - - 0,0
13.08.2018 10:00:00 17,7 16,6 18,7 17,7 0,0
13.08.2018 09:00:00 16,1 15,9 - - 0,0
13.08.2018 08:00:00 15,7 15,7 - - 0,0
13.08.2018 07:00:00 15,2 15,2 - - 0,0
13.08.2018 06:00:00 14,9 14,8 - - 0,2
13.08.2018 05:00:00 14,3 14,2 - - 0,0
13.08.2018 04:00:00 14,0 13,8 - - 0,0
13.08.2018 03:00:00 14,0 13,6 - - 0,0
13.08.2018 02:00:00 14,8 14,3 - - 0,2
13.08.2018 01:00:00 15,3 14,5 - - 2,4
13.08.2018 00:00:00 15,1 14,2 - - 0,0
12.08.2018 23:00:00 15,8 14,5 - - 0,0
12.08.2018 22:00:00 16,4 14,1 - - 0,0
12.08.2018 21:00:00 18,4 13,6 - - 0,0
12.08.2018 20:00:00 19,7 12,9 - - 0,0
12.08.2018 19:00:00 20,5 12,9 - - 0,0
12.08.2018 18:00:00 21,4 13,3 - - 0,0
12.08.2018 17:00:00 21,5 13,9 - - 0,0
12.08.2018 16:00:00 21,2 13,8 - - 0,0
12.08.2018 15:00:00 21,9 13,3 - - 0,0
12.08.2018 14:00:00 22,4 12,7 - - 0,0
12.08.2018 13:00:00 22,2 13,3 - - 0,0
12.08.2018 12:00:00 21,4 13,0 - - 0,0
12.08.2018 11:00:00 19,8 14,6 - - 0,0
12.08.2018 10:00:00 19,1 15,7 18,7 17,7 0,0
12.08.2018 09:00:00 18,1 16,2 - - 0,0
12.08.2018 08:00:00 17,0 15,7 - - 0,0
12.08.2018 07:00:00 16,4 15,5 - - 0,0
12.08.2018 06:00:00 16,0 15,4 - - 0,0
12.08.2018 05:00:00 16,0 15,4 - - 0,4
12.08.2018 04:00:00 16,0 15,5 - - 0,6
12.08.2018 03:00:00 15,9 15,4 - - 0,2
12.08.2018 02:00:00 15,8 15,3 - - 0,0
12.08.2018 01:00:00 15,8 15,3 - - 0,2
12.08.2018 00:00:00 15,8 15,3 - - 0,6
11.08.2018 23:00:00 15,8 15,2 - - 1,6
11.08.2018 22:00:00 16,2 14,6 - - 0,4
11.08.2018 21:00:00 18,8 12,7 - - 0,0
11.08.2018 20:00:00 19,1 10,7 - - 0,0
11.08.2018 19:00:00 20,0 9,2 - - 0,0
11.08.2018 18:00:00 21,3 8,3 - - 0,0
11.08.2018 17:00:00 22,0 8,4 - - 0,0
11.08.2018 16:00:00 22,2 7,3 - - 0,0
11.08.2018 15:00:00 21,3 6,9 - - 0,0
11.08.2018 14:00:00 20,9 7,9 - - 0,0
11.08.2018 13:00:00 20,1 8,7 - - 0,0
11.08.2018 12:00:00 18,9 9,3 - - 0,0
11.08.2018 11:00:00 18,6 10,0 - - 0,0
11.08.2018 10:00:00 16,3 11,0 18,0 17,9 0,0
11.08.2018 09:00:00 13,8 12,2 - - 0,0
11.08.2018 08:00:00 11,0 11,0 - - 0,0
11.08.2018 07:00:00 6,4 6,4 - - 0,0
11.08.2018 06:00:00 4,8 4,8 - - 0,0
11.08.2018 05:00:00 5,3 5,3 - - 0,0
11.08.2018 04:00:00 5,8 5,8 - - 0,0
11.08.2018 03:00:00 5,7 5,6 - - 0,0
11.08.2018 02:00:00 6,2 6,1 - - 0,0
11.08.2018 01:00:00 6,7 6,6 - - 0,0
11.08.2018 00:00:00 7,3 7,1 - - 0,0
10.08.2018 23:00:00 8,2 7,8 - - 0,0
10.08.2018 22:00:00 9,4 8,8 - - 0,0
10.08.2018 21:00:00 11,2 10,0 - - 0,0
10.08.2018 20:00:00 13,7 10,5 - - 0,0
10.08.2018 19:00:00 14,8 11,9 - - 0,0
10.08.2018 18:00:00 14,6 12,3 - - 0,2
10.08.2018 17:00:00 15,2 11,8 - - 0,0
10.08.2018 16:00:00 14,0 11,9 - - 0,0
10.08.2018 15:00:00 13,7 11,9 - - 1,2
10.08.2018 14:00:00 12,8 11,5 - - 3,6
10.08.2018 13:00:00 13,9 11,9 - - 1,2
10.08.2018 12:00:00 18,2 10,3 - - 0,0
10.08.2018 11:00:00 17,9 10,9 - - 0,0
10.08.2018 10:00:00 17,0 12,3 18,7 18,0 0,0
10.08.2018 09:00:00 15,8 13,0 - - 0,0
10.08.2018 08:00:00 13,3 12,4 - - 0,0
10.08.2018 07:00:00 10,6 10,6 - - 0,0
10.08.2018 06:00:00 9,2 8,9 - - 0,0
10.08.2018 05:00:00 9,8 9,3 - - 0,0
10.08.2018 04:00:00 11,3 10,8 - - 0,2
10.08.2018 03:00:00 11,7 11,1 - - 0,0
10.08.2018 02:00:00 12,6 12,2 - - 0,0
10.08.2018 01:00:00 12,5 12,0 - - 0,8
10.08.2018 00:00:00 12,9 12,4 - - 3,0
09.08.2018 23:00:00 12,8 12,6 - - 0,0
09.08.2018 22:00:00 12,3 12,0 - - 0,0
09.08.2018 21:00:00 12,6 12,3 - - 0,0
09.08.2018 20:00:00 13,0 12,6 - - 0,0

tt = temperature
td = dewpoint
tt -20cm = temperature -20cm
tt -100cm = temperature -100cm
rr = precipitation

Next stations